QPF
0.00 0.00 0.00 0.00 0.00 0.00 0.00 0.00 0.00 0.00 0.00 0.00 0.00 0.00 0.00 0.00 0.00 0.00 0.00 0.00 0.00 0.00 0.00 0.00 0.00 0.01 0.01 0.01 0.00 0.00 0.00 0.00 0.00 0.00 0.00 0.01 0.01 0.01 0.03 0.06 0.08 0.10 0.14 0.12 0.12 0.13 0.19 0.03 0.00
0.00 0.00 0.00 0.00 0.00 0.00 0.00 0.00 0.00 0.00 0.00 0.00 0.00 0.00 0.00 0.00 0.00 0.00 0.00 0.00 0.00 0.00 0.00 0.01 0.01 0.00 0.01 0.00 0.00 0.00 0.00 0.00 0.00 0.00 0.00 0.00 0.00 0.00 0.03 0.06 0.09 0.10 0.10 0.03 0.00 0.02 0.11 0.05 0.00
0.00 0.00 0.00 0.00 0.00 0.00 0.00 0.00 0.00 0.00 0.00 0.00 0.00 0.00 0.00 0.00 0.00 0.00 0.00 0.00 0.00 0.00 0.00 0.01 0.01 0.00 0.01 0.01 0.01 0.00 0.00 0.00 0.00 0.01 0.00 0.00 0.00 0.00 0.00 0.00 0.00 0.01 0.02 0.00 0.00 0.00 0.01 0.03 0.01
0.00 0.00 0.00 0.00 0.00 0.00 0.00 0.00 0.00 0.00 0.00 0.00 0.00 0.00 0.00 0.00 0.00 0.00 0.00 0.00 0.00 0.00 0.00 0.01 0.01 0.00 0.01 0.01 0.01 0.00 0.00 0.00 0.01 0.00 0.01 0.01 0.00 0.00 0.00 0.00 0.00 0.00 0.00 0.00 0.00 0.00 0.00 0.02 0.03
0.00 0.00 0.00 0.00 0.00 0.00 0.00 0.00 0.00 0.00 0.00 0.00 0.00 0.00 0.00 0.00 0.00 0.00 0.00 0.00 0.00 0.00 0.00 0.01 0.01 0.00 0.01 0.01 0.01 0.01 0.01 0.01 0.01 0.01 0.01 0.00 0.00 0.00 0.00 0.00 0.00 0.00 0.00 0.00 0.00 0.00 0.00 0.00 0.00
0.00 0.00 0.00 0.00 0.00 0.00 0.00 0.00 0.00 0.00 0.00 0.00 0.00 0.00 0.00 0.00 0.00 0.00 0.00 0.00 0.00 0.00 0.00 0.00 0.01 0.01 0.01 0.01 0.01 0.01 0.01 0.01 0.01 0.01 0.00 0.00 0.00 0.00 0.00 0.00 0.00 0.00 0.00 0.00 0.00 0.00 0.00 0.00 0.00
0.00 0.00 0.00 0.00 0.00 0.00 0.00 0.00 0.00 0.00 0.00 0.00 0.00 0.00 0.00 0.00 0.00 0.00 0.00 0.00 0.00 0.00 0.00 0.00 0.00 0.01 0.02 0.01 0.01 0.01 0.01 0.01 0.01 0.00 0.00 0.00 0.00 0.00 0.00 0.00 0.00 0.00 0.00 0.00 0.00 0.00 0.00 0.00 0.00
0.00 0.00 0.00 0.00 0.00 0.00 0.00 0.00 0.00 0.00 0.00 0.00 0.00 0.00 0.00 0.00 0.00 0.00 0.00 0.00 0.00 0.00 0.00 0.00 0.00 0.00 0.00 0.00 0.00 0.00 0.00 0.00 0.00 0.00 0.00 0.00 0.00 0.00 0.00 0.00 0.00 0.00 0.00 0.00 0.00 0.00 0.00 0.00 0.00
0.00 0.00 0.00 0.00 0.00 0.00 0.00 0.00 0.00 0.00 0.00 0.00 0.00 0.00 0.00 0.00 0.00 0.00 0.00 0.00 0.00 0.00 0.00 0.00 0.00 0.00 0.00 0.00 0.00 0.00 0.00 0.00 0.00 0.00 0.00 0.00 0.00 0.00 0.00 0.00 0.00 0.00 0.00 0.00 0.00 0.00 0.00 0.00 0.00
0.00 0.00 0.00 0.00 0.00 0.00 0.00 0.00 0.00 0.00 0.00 0.00 0.00 0.00 0.00 0.00 0.00 0.00 0.00 0.00 0.00 0.00 0.00 0.00 0.00 0.00 0.00 0.00 0.00 0.00 0.00 0.00 0.00 0.00 0.00 0.00 0.00 0.00 0.00 0.00 0.00 0.00 0.00 0.00 0.00 0.00 0.00 0.00 0.00
0.00 0.00 0.00 0.00 0.00 0.00 0.00 0.00 0.00 0.00 0.00 0.00 0.00 0.00 0.00 0.00 0.00 0.00 0.00 0.00 0.00 0.00 0.00 0.00 0.00 0.00 0.00 0.00 0.00 0.00 0.00 0.00 0.00 0.00 0.00 0.00 0.00 0.00 0.00 0.00 0.00 0.00 0.00 0.00 0.00 0.00 0.00 0.00 0.00
0.00 0.00 0.00 0.00 0.00 0.00 0.00 0.00 0.00 0.00 0.00 0.00 0.00 0.00 0.00 0.00 0.00 0.00 0.00 0.00 0.00 0.00 0.00 0.00 0.00 0.00 0.00 0.00 0.00 0.00 0.00 0.00 0.00 0.00 0.00 0.00 0.00 0.00 0.00 0.00 0.00 0.00 0.00 0.00 0.00 0.00 0.00 0.00 0.00
0.00 0.00 0.00 0.00 0.00 0.00 0.00 0.00 0.00 0.00 0.00 0.00 0.00 0.00 0.00 0.00 0.00 0.00 0.00 0.00 0.00 0.00 0.00 0.00 0.00 0.00 0.00 0.00 0.00 0.00 0.00 0.00 0.00 0.00 0.00 0.00 0.00 0.00 0.00 0.00 0.00 0.00 0.00 0.00 0.00 0.00 0.00 0.00 0.00
0.00 0.00 0.00 0.00 0.00 0.00 0.00 0.00 0.00 0.00 0.00 0.00 0.00 0.00 0.00 0.00 0.00 0.00 0.00 0.00 0.00 0.00 0.00 0.00 0.00 0.00 0.00 0.00 0.00 0.00 0.00 0.00 0.00 0.00 0.00 0.00 0.00 0.00 0.00 0.00 0.00 0.00 0.00 0.00 0.00 0.00 0.00 0.00 0.00
0.00 0.00 0.00 0.00 0.00 0.00 0.00 0.00 0.00 0.00 0.00 0.00 0.00 0.00 0.00 0.00 0.00 0.00 0.00 0.00 0.00 0.00 0.00 0.00 0.00 0.00 0.00 0.00 0.00 0.00 0.00 0.00 0.00 0.00 0.00 0.00 0.00 0.00 0.00 0.00 0.00 0.00 0.00 0.00 0.00 0.00 0.00 0.00 0.00
0.00 0.00 0.00 0.00 0.00 0.00 0.00 0.00 0.00 0.00 0.00 0.00 0.00 0.00 0.00 0.00 0.00 0.00 0.00 0.00 0.00 0.00 0.00 0.00 0.00 0.00 0.00 0.00 0.00 0.00 0.00 0.00 0.00 0.00 0.00 0.00 0.00 0.00 0.00 0.00 0.00 0.00 0.00 0.00 0.00 0.00 0.00 0.00 0.00
0.00 0.00 0.00 0.00 0.00 0.00 0.00 0.00 0.00 0.00 0.00 0.00 0.00 0.00 0.00 0.00 0.00 0.00 0.00 0.00 0.00 0.00 0.00 0.00 0.00 0.00 0.00 0.00 0.00 0.00 0.00 0.00 0.00 0.00 0.00 0.00 0.00 0.00 0.00 0.00 0.00 0.00 0.00 0.00 0.00 0.00 0.00 0.00 0.00
0.00 0.00 0.00 0.00 0.00 0.00 0.00 0.00 0.00 0.00 0.00 0.00 0.00 0.00 0.00 0.00 0.00 0.00 0.00 0.00 0.00 0.00 0.00 0.00 0.00 0.00 0.00 0.00 0.00 0.00 0.00 0.00 0.00 0.00 0.00 0.00 0.00 0.00 0.00 0.00 0.00 0.00 0.00 0.00 0.00 0.00 0.00 0.00 0.00
0.00 0.00 0.00 0.00 0.00 0.00 0.00 0.00 0.00 0.00 0.00 0.00 0.00 0.00 0.00 0.00 0.00 0.00 0.00 0.00 0.00 0.00 0.00 0.00 0.00 0.00 0.00 0.00 0.00 0.00 0.00 0.00 0.00 0.00 0.00 0.00 0.00 0.00 0.00 0.00 0.00 0.00 0.00 0.00 0.00 0.00 0.00 0.00 0.00
0.00 0.00 0.00 0.00 0.00 0.00 0.00 0.00 0.00 0.00 0.00 0.00 0.00 0.00 0.00 0.00 0.00 0.00 0.00 0.00 0.00 0.00 0.00 0.00 0.00 0.00 0.00 0.00 0.00 0.00 0.00 0.00 0.00 0.00 0.00 0.00 0.00 0.00 0.00 0.00 0.00 0.00 0.00 0.00 0.00 0.00 0.00 0.00 0.00
0.00 0.00 0.00 0.00 0.00 0.00 0.00 0.00 0.00 0.00 0.00 0.00 0.00 0.00 0.00 0.00 0.00 0.00 0.00 0.00 0.00 0.00 0.00 0.00 0.00 0.00 0.00 0.00 0.00 0.00 0.00 0.00 0.00 0.00 0.00 0.00 0.00 0.00 0.00 0.00 0.00 0.00 0.00 0.00 0.00 0.00 0.00 0.00 0.00
0.00 0.00 0.00 0.00 0.00 0.00 0.00 0.00 0.00 0.00 0.00 0.00 0.00 0.00 0.00 0.00 0.00 0.00 0.00 0.00 0.00 0.00 0.00 0.00 0.00 0.00 0.00 0.00 0.00 0.00 0.00 0.00 0.00 0.00 0.00 0.00 0.00 0.00 0.00 0.00 0.00 0.00 0.00 0.00 0.00 0.00 0.00 0.00 0.00
0.00 0.00 0.00 0.00 0.00 0.00 0.00 0.00 0.00 0.00 0.00 0.00 0.00 0.00 0.00 0.00 0.00 0.00 0.00 0.00 0.00 0.00 0.00 0.00 0.00 0.00 0.00 0.00 0.00 0.00 0.00 0.00 0.00 0.00 0.00 0.00 0.00 0.00 0.00 0.00 0.00 0.00 0.00 0.00 0.00 0.00 0.00 0.00 0.00
0.00 0.00 0.00 0.00 0.00 0.00 0.00 0.00 0.00 0.00 0.00 0.00 0.00 0.00 0.00 0.00 0.00 0.00 0.00 0.00 0.00 0.00 0.00 0.00 0.00 0.00 0.00 0.00 0.00 0.00 0.00 0.00 0.00 0.00 0.00 0.00 0.00 0.00 0.00 0.00 0.00 0.00 0.00 0.00 0.00 0.00 0.00 0.00 0.00
0.00 0.00 0.00 0.00 0.00 0.00 0.00 0.00 0.00 0.00 0.00 0.00 0.00 0.00 0.00 0.00 0.00 0.00 0.00 0.00 0.00 0.00 0.00 0.00 0.00 0.00 0.00 0.00 0.00 0.00 0.00 0.00 0.00 0.00 0.00 0.00 0.00 0.00 0.00 0.00 0.00 0.00 0.00 0.00 0.00 0.00 0.00 0.00 0.00
0.00 0.00 0.00 0.00 0.00 0.00 0.00 0.00 0.00 0.00 0.00 0.00 0.00 0.00 0.00 0.00 0.00 0.00 0.00 0.00 0.00 0.00 0.00 0.00 0.00 0.00 0.00 0.00 0.00 0.00 0.00 0.00 0.00 0.00 0.00 0.00 0.00 0.00 0.00 0.00 0.00 0.00 0.00 0.00 0.00 0.00 0.00 0.00 0.00
0.00 0.00 0.00 0.00 0.00 0.00 0.00 0.00 0.00 0.00 0.00 0.00 0.00 0.00 0.00 0.00 0.00 0.00 0.00 0.00 0.00 0.00 0.00 0.00 0.00 0.00 0.00 0.00 0.00 0.00 0.00 0.00 0.00 0.00 0.00 0.00 0.00 0.00 0.00 0.00 0.00 0.00 0.00 0.00 0.00 0.00 0.00 0.00 0.00
0.00 0.00 0.00 0.00 0.00 0.00 0.00 0.00 0.00 0.00 0.00 0.00 0.00 0.00 0.00 0.00 0.00 0.00 0.00 0.00 0.00 0.00 0.00 0.00 0.00 0.00 0.00 0.00 0.00 0.00 0.00 0.00 0.00 0.00 0.00 0.00 0.00 0.00 0.00 0.00 0.00 0.00 0.00 0.00 0.00 0.00 0.00 0.00 0.00
0.00 0.00 0.00 0.00 0.00 0.00 0.00 0.00 0.00 0.00 0.00 0.00 0.00 0.00 0.00 0.00 0.00 0.00 0.00 0.00 0.00 0.00 0.00 0.00 0.00 0.00 0.00 0.00 0.00 0.00 0.00 0.00 0.00 0.00 0.00 0.00 0.00 0.00 0.00 0.00 0.00 0.00 0.00 0.00 0.00 0.00 0.00 0.00 0.00
0.00 0.00 0.00 0.00 0.00 0.00 0.00 0.00 0.00 0.00 0.00 0.00 0.00 0.00 0.00 0.00 0.00 0.00 0.00 0.00 0.00 0.00 0.00 0.00 0.00 0.00 0.00 0.00 0.00 0.00 0.00 0.00 0.00 0.00 0.00 0.00 0.00 0.00 0.00 0.00 0.00 0.00 0.00 0.00 0.00 0.00 0.00 0.00 0.00
MSLP
1011.52 1011.43 1011.14 1010.72 1011.38 1010.23 1008.87 1007.69 1006.44 1005.47 1004.75 1004.81 1004.92 1005.60 1006.19 1006.82 1008.31 1010.59 1011.32 1011.37 1011.72 1012.54 1013.17 1013.31 1013.52 1013.81 1014.13 1014.37 1014.75 1015.04 1015.03 1015.25 1015.47 1015.66 1015.86 1016.01 1016.22 1016.39 1016.53 1016.74 1016.91 1016.95 1017.08 1017.39 1017.65 1018.21 1018.16 1018.29 1018.29
1011.14 1010.81 1010.74 1010.49 1010.56 1009.46 1007.89 1006.49 1005.80 1005.10 1005.13 1005.22 1005.65 1006.20 1006.82 1008.21 1009.38 1010.89 1011.82 1011.72 1011.79 1012.46 1013.20 1013.46 1013.75 1014.06 1014.42 1014.72 1015.03 1015.29 1015.37 1015.64 1015.87 1016.10 1016.28 1016.67 1016.77 1017.05 1017.32 1017.45 1017.68 1017.68 1017.86 1018.06 1018.17 1018.52 1018.71 1018.70 1018.73
1011.20 1010.40 1010.60 1010.12 1009.34 1008.31 1007.03 1005.59 1005.16 1005.53 1005.45 1005.77 1006.53 1007.09 1007.89 1009.22 1010.16 1011.01 1011.27 1011.59 1011.91 1012.68 1013.17 1013.56 1013.92 1014.26 1014.63 1015.03 1015.41 1015.63 1015.79 1016.10 1016.36 1016.67 1016.89 1017.21 1017.41 1017.70 1018.02 1018.18 1018.41 1018.48 1018.62 1018.83 1018.87 1018.90 1019.23 1019.24 1019.33
1010.46 1010.75 1010.74 1009.39 1008.30 1007.06 1006.32 1005.32 1004.84 1005.29 1005.83 1006.25 1006.73 1007.79 1008.78 1009.93 1010.27 1010.81 1011.64 1011.84 1012.48 1013.32 1013.56 1013.78 1014.12 1014.55 1014.97 1015.38 1015.78 1016.01 1016.11 1016.44 1016.83 1017.12 1017.43 1017.78 1018.04 1018.33 1018.66 1018.83 1018.99 1019.17 1019.31 1019.40 1019.44 1019.79 1019.76 1019.94 1019.92
1010.21 1010.20 1010.12 1009.10 1007.93 1007.01 1005.70 1004.79 1004.79 1004.89 1005.49 1006.37 1007.25 1008.09 1009.70 1010.83 1011.06 1011.48 1011.87 1012.21 1013.06 1013.89 1013.81 1014.02 1014.30 1014.76 1015.24 1015.69 1016.07 1016.31 1016.53 1016.81 1017.28 1017.67 1018.04 1018.36 1018.64 1019.00 1019.24 1019.32 1019.69 1019.78 1019.90 1019.90 1020.00 1020.29 1020.40 1020.33 1020.18
1010.37 1009.74 1009.23 1008.57 1007.48 1006.17 1005.00 1004.18 1003.99 1004.22 1005.08 1006.04 1007.20 1008.54 1010.47 1011.36 1011.79 1012.16 1012.50 1012.93 1013.63 1014.03 1014.01 1014.27 1014.54 1014.96 1015.49 1015.94 1016.32 1016.61 1016.82 1017.24 1017.79 1018.21 1018.64 1019.00 1019.28 1019.53 1019.80 1020.18 1020.27 1020.36 1020.43 1020.51 1020.67 1020.88 1020.95 1020.81 1020.85
1009.91 1009.66 1008.89 1008.14 1006.73 1005.38 1004.16 1003.45 1003.88 1003.95 1004.86 1005.71 1006.51 1008.30 1010.75 1011.81 1012.17 1012.55 1013.10 1013.56 1014.22 1014.53 1014.46 1014.68 1014.98 1015.40 1015.86 1016.27 1016.72 1017.09 1017.33 1017.77 1018.38 1018.91 1019.36 1019.72 1020.09 1020.34 1020.68 1020.73 1020.92 1021.02 1021.54 1021.43 1021.53 1021.66 1021.60 1021.33 1021.49
1009.50 1009.67 1008.70 1007.62 1006.36 1005.21 1004.66 1004.15 1004.12 1004.78 1005.24 1005.79 1006.33 1008.14 1010.36 1011.34 1012.21 1012.83 1013.70 1014.45 1014.99 1015.26 1015.14 1015.12 1015.47 1015.98 1016.48 1016.99 1017.37 1017.86 1018.12 1018.71 1019.30 1019.97 1020.44 1020.65 1020.94 1021.21 1021.45 1021.73 1021.94 1021.97 1021.97 1022.39 1022.39 1022.25 1022.11 1022.01 1022.03
1009.43 1009.14 1007.97 1006.51 1006.35 1005.23 1004.53 1004.46 1004.73 1005.45 1005.97 1006.58 1007.32 1008.91 1010.15 1011.15 1012.31 1013.29 1014.19 1015.18 1015.70 1015.71 1015.67 1015.57 1015.89 1016.45 1017.06 1017.72 1018.37 1018.99 1019.42 1019.95 1020.37 1020.77 1020.92 1021.32 1021.74 1022.17 1022.29 1022.22 1022.29 1022.52 1022.50 1022.44 1022.46 1022.63 1022.56 1022.58 1022.49
1009.27 1008.64 1007.34 1006.42 1005.70 1004.93 1004.80 1004.91 1005.10 1005.80 1006.18 1006.82 1008.16 1009.84 1010.85 1011.69 1012.55 1013.45 1014.24 1015.06 1015.61 1015.95 1016.02 1016.05 1016.26 1016.80 1017.41 1018.15 1019.09 1019.72 1020.16 1020.65 1021.15 1021.35 1021.50 1021.85 1022.19 1022.56 1022.80 1022.84 1023.03 1022.95 1022.72 1022.73 1022.78 1022.76 1022.97 1023.07 1023.10
1008.14 1007.53 1006.69 1006.15 1005.38 1005.33 1005.20 1005.28 1005.44 1005.60 1006.13 1006.47 1007.54 1009.15 1010.43 1011.49 1012.37 1013.22 1014.10 1014.95 1015.38 1015.81 1016.12 1016.33 1016.58 1017.08 1017.60 1018.56 1019.30 1019.96 1020.47 1020.96 1021.25 1021.40 1021.84 1022.34 1022.59 1022.76 1022.94 1023.03 1022.93 1022.99 1022.99 1023.20 1023.33 1023.69 1023.71 1023.54 1023.28
1007.26 1006.72 1006.57 1006.29 1005.85 1005.68 1005.69 1005.61 1005.47 1005.53 1005.54 1005.85 1006.50 1008.16 1009.86 1010.78 1011.59 1012.29 1013.23 1014.09 1014.99 1015.85 1016.30 1016.64 1016.92 1017.33 1018.15 1018.71 1019.46 1020.11 1020.70 1021.12 1021.52 1021.76 1021.92 1022.34 1022.59 1022.72 1022.98 1023.21 1023.24 1023.25 1023.38 1023.57 1023.70 1023.80 1023.72 1023.83 1023.89
1006.45 1006.19 1006.11 1005.86 1005.67 1005.56 1005.72 1005.86 1005.67 1005.57 1005.12 1005.55 1006.28 1007.27 1009.01 1010.38 1011.18 1011.88 1012.53 1013.57 1014.58 1015.39 1016.18 1016.80 1017.15 1017.57 1018.18 1018.70 1019.37 1020.05 1020.65 1021.28 1021.64 1021.96 1022.02 1022.27 1022.75 1023.12 1023.35 1023.57 1023.75 1023.85 1023.79 1023.87 1024.06 1024.08 1024.19 1024.47 1024.66
1005.49 1005.68 1005.63 1005.57 1005.55 1005.76 1005.76 1005.66 1005.85 1005.24 1005.25 1005.61 1005.95 1007.00 1008.09 1009.16 1010.19 1011.23 1011.96 1012.88 1014.10 1015.04 1015.77 1016.44 1017.12 1017.67 1018.16 1018.75 1019.32 1019.97 1020.57 1021.44 1021.99 1022.33 1022.44 1022.54 1022.90 1023.31 1023.66 1023.98 1024.28 1024.44 1024.42 1024.37 1024.44 1024.59 1024.74 1024.85 1025.02
1006.05 1005.83 1005.75 1005.52 1005.62 1005.72 1005.81 1005.56 1005.12 1004.85 1005.07 1005.32 1005.72 1006.48 1007.52 1008.46 1009.31 1010.26 1011.16 1012.08 1013.27 1014.53 1015.43 1016.25 1016.88 1017.48 1018.07 1018.69 1019.37 1020.17 1020.85 1021.56 1022.25 1022.62 1022.79 1022.95 1023.16 1023.52 1023.85 1024.31 1024.65 1024.79 1024.73 1024.77 1024.80 1024.85 1024.91 1025.13 1025.15
1006.94 1006.45 1006.28 1005.25 1004.83 1004.86 1005.85 1005.20 1004.89 1004.36 1004.65 1005.11 1005.49 1006.27 1007.20 1007.98 1008.74 1009.67 1010.60 1011.55 1012.66 1014.09 1015.16 1016.00 1016.72 1017.52 1018.17 1018.76 1019.53 1020.30 1021.09 1021.72 1022.32 1022.78 1023.05 1023.26 1023.49 1023.78 1024.21 1024.64 1024.89 1024.89 1024.99 1025.14 1025.33 1025.50 1025.58 1025.64 1025.83
1007.03 1006.25 1005.75 1005.30 1004.69 1005.00 1005.41 1005.40 1004.85 1004.46 1004.83 1005.24 1005.70 1006.32 1007.06 1007.84 1008.67 1009.41 1010.32 1011.37 1012.39 1013.43 1014.70 1015.74 1016.69 1017.50 1018.31 1019.09 1019.88 1020.68 1021.27 1021.91 1022.45 1022.94 1023.41 1023.66 1023.84 1024.12 1024.61 1025.01 1025.20 1025.19 1025.38 1025.46 1025.53 1025.82 1026.08 1026.22 1026.30
1006.14 1005.93 1005.35 1004.72 1004.50 1004.91 1005.61 1005.52 1005.21 1005.10 1005.28 1005.69 1006.25 1006.45 1006.97 1007.76 1008.40 1009.40 1010.44 1011.39 1012.49 1013.57 1014.77 1015.92 1016.95 1017.78 1018.50 1019.42 1020.34 1021.07 1021.64 1022.14 1022.59 1023.24 1023.75 1024.03 1024.26 1024.53 1024.90 1025.29 1025.46 1025.55 1025.81 1025.99 1026.16 1026.22 1026.41 1026.68 1026.82
1005.88 1005.30 1005.11 1004.66 1004.46 1004.89 1005.43 1005.52 1005.53 1005.36 1005.62 1006.13 1006.77 1007.88 1008.48 1008.72 1008.88 1009.90 1010.86 1011.80 1012.91 1014.06 1015.23 1016.17 1017.13 1018.19 1019.13 1019.95 1020.68 1021.32 1021.92 1022.41 1022.95 1023.33 1023.73 1024.20 1024.40 1024.75 1025.14 1025.51 1025.81 1026.10 1026.46 1026.65 1026.62 1026.76 1026.92 1027.12 1027.31
1006.13 1005.66 1004.99 1005.04 1004.75 1005.03 1005.46 1005.52 1005.57 1005.66 1006.50 1007.84 1008.72 1009.79 1010.33 1010.15 1010.38 1010.92 1011.72 1012.55 1013.49 1014.38 1015.40 1016.45 1017.52 1018.48 1019.32 1020.12 1020.70 1021.16 1021.83 1022.52 1023.02 1023.49 1023.93 1024.34 1024.52 1024.77 1025.20 1025.65 1026.03 1026.31 1026.65 1026.90 1027.11 1027.34 1027.67 1027.82 1027.80
1006.03 1006.25 1005.92 1005.94 1005.98 1005.80 1006.24 1006.17 1005.85 1006.84 1007.93 1009.28 1010.55 1011.50 1011.83 1011.82 1011.50 1011.72 1012.51 1013.34 1014.11 1015.00 1015.87 1016.71 1017.65 1018.68 1019.62 1020.22 1020.72 1021.21 1021.84 1022.68 1023.47 1024.07 1024.55 1024.68 1024.85 1025.13 1025.44 1025.85 1026.15 1026.41 1026.75 1027.14 1027.32 1027.48 1027.77 1028.17 1028.36
1006.69 1007.05 1006.78 1006.77 1007.12 1007.32 1007.01 1007.31 1006.89 1008.32 1009.87 1011.31 1012.49 1013.25 1013.41 1013.13 1012.77 1012.93 1013.44 1014.05 1014.72 1015.39 1016.15 1016.96 1017.85 1018.82 1019.59 1020.17 1020.68 1021.27 1021.91 1022.79 1023.61 1024.14 1024.71 1025.04 1025.22 1025.56 1025.81 1026.13 1026.43 1026.70 1027.09 1027.51 1027.56 1027.76 1028.12 1028.17 1028.61
1007.71 1008.04 1008.09 1008.19 1008.57 1008.75 1008.62 1009.55 1007.87 1009.03 1011.58 1013.27 1014.20 1014.64 1014.72 1014.52 1014.26 1014.30 1014.51 1014.91 1015.39 1015.86 1016.48 1017.23 1018.12 1018.98 1019.59 1020.18 1020.77 1021.49 1022.30 1022.83 1023.46 1024.18 1024.86 1025.37 1025.65 1025.87 1026.18 1026.50 1026.79 1027.03 1027.40 1027.75 1028.05 1028.45 1028.66 1028.84 1029.14
1008.79 1008.92 1009.14 1009.37 1009.69 1009.73 1009.05 1009.86 1010.00 1011.33 1012.87 1014.36 1014.98 1015.62 1015.77 1015.67 1015.40 1015.37 1015.45 1015.76 1016.27 1016.60 1017.08 1017.72 1018.54 1019.28 1019.80 1020.38 1020.98 1021.63 1022.35 1022.99 1023.77 1024.47 1025.12 1025.61 1026.09 1026.35 1026.49 1026.68 1027.07 1027.37 1027.75 1028.13 1028.45 1028.63 1028.99 1029.28 1029.45
1009.41 1009.55 1009.96 1010.47 1010.65 1009.90 1009.40 1010.61 1011.65 1012.90 1013.74 1014.59 1015.50 1015.97 1016.17 1016.24 1016.16 1016.16 1016.38 1016.65 1017.02 1017.42 1017.77 1018.32 1019.02 1019.74 1020.16 1020.62 1021.14 1021.60 1022.18 1022.98 1023.86 1024.55 1025.21 1025.81 1026.30 1026.66 1026.89 1027.02 1027.37 1027.75 1028.10 1028.42 1028.76 1029.04 1029.34 1029.59 1029.72
1009.46 1009.46 1009.94 1010.37 1010.75 1010.78 1010.87 1011.80 1012.69 1013.90 1014.57 1015.04 1015.59 1015.85 1016.24 1016.57 1016.45 1016.66 1017.03 1017.29 1017.64 1018.07 1018.46 1018.86 1019.46 1020.12 1020.57 1021.07 1021.53 1021.85 1022.32 1023.07 1023.88 1024.63 1025.27 1025.89 1026.37 1026.78 1027.02 1027.29 1027.52 1027.88 1028.28 1028.66 1028.96 1029.26 1029.44 1029.67 1029.83
1009.82 1010.07 1010.48 1011.16 1011.38 1011.97 1011.83 1013.05 1013.98 1014.71 1015.34 1015.63 1015.81 1015.96 1016.30 1016.54 1016.65 1016.92 1017.10 1017.49 1018.08 1018.48 1018.82 1019.26 1019.87 1020.45 1020.82 1021.30 1021.78 1022.26 1022.76 1023.43 1024.19 1024.86 1025.50 1025.98 1026.43 1026.80 1027.36 1027.60 1027.80 1028.10 1028.50 1028.84 1029.17 1029.45 1029.60 1029.76 1029.91
1010.72 1011.12 1011.52 1012.22 1013.02 1013.26 1012.65 1013.28 1014.18 1015.22 1015.79 1016.08 1016.19 1016.10 1016.25 1016.40 1016.64 1016.92 1017.08 1017.42 1017.97 1018.61 1019.22 1019.56 1020.01 1020.56 1021.05 1021.41 1021.96 1022.62 1023.24 1023.93 1024.59 1025.17 1025.74 1026.32 1026.66 1027.03 1027.64 1027.88 1028.04 1028.29 1028.56 1028.82 1029.26 1029.57 1029.71 1029.95 1030.09
1011.54 1011.78 1012.47 1013.15 1014.00 1014.40 1014.71 1014.77 1014.83 1015.04 1015.55 1015.77 1015.90 1015.73 1015.84 1016.16 1016.44 1016.89 1017.18 1017.71 1018.14 1018.53 1019.26 1020.02 1020.37 1020.81 1021.32 1021.71 1022.39 1023.01 1023.54 1024.23 1024.76 1025.33 1025.73 1026.45 1026.95 1027.29 1027.78 1028.09 1028.24 1028.63 1028.74 1028.76 1029.15 1029.55 1029.74 1030.04 1030.17
1011.87 1012.57 1013.24 1014.03 1014.96 1015.48 1015.96 1015.94 1015.26 1015.12 1015.46 1015.62 1015.57 1015.48 1015.80 1015.83 1016.25 1016.63 1017.22 1017.71 1018.34 1018.91 1019.30 1020.13 1020.75 1021.03 1021.44 1022.07 1022.71 1023.27 1023.87 1024.41 1024.88 1025.19 1025.90 1026.22 1026.92 1027.39 1027.84 1028.18 1028.46 1028.63 1028.83 1028.83 1029.03 1029.49 1029.80 1030.18 1030.32
Thickness
5695 5695 5697 5694 5665 5673 5675 5689 5711 5712 5723 5730 5734 5722 5718 5721 5715 5693 5704 5706 5705 5699 5694 5693 5692 5690 5687 5685 5682 5680 5680 5677 5676 5674 5674 5675 5676 5677 5678 5679 5680 5683 5682 5680 5678 5675 5676 5677 5678
5693 5695 5691 5680 5661 5662 5681 5706 5706 5717 5720 5727 5724 5720 5717 5704 5705 5697 5691 5699 5700 5695 5690 5689 5687 5685 5682 5679 5677 5675 5675 5673 5671 5669 5668 5667 5668 5669 5669 5671 5670 5673 5672 5671 5672 5671 5670 5672 5674
5687 5693 5674 5666 5668 5669 5682 5713 5716 5711 5718 5718 5712 5714 5709 5699 5700 5693 5697 5697 5696 5690 5687 5684 5681 5680 5678 5674 5672 5671 5670 5668 5666 5664 5663 5662 5662 5661 5662 5663 5662 5664 5664 5665 5666 5668 5668 5668 5668
5684 5675 5671 5659 5671 5692 5696 5710 5716 5709 5708 5712 5711 5700 5701 5698 5700 5697 5690 5691 5688 5681 5680 5678 5676 5673 5671 5668 5665 5665 5665 5664 5661 5660 5658 5656 5656 5655 5654 5655 5656 5656 5657 5658 5661 5659 5662 5661 5663
5679 5670 5652 5656 5670 5686 5703 5713 5702 5705 5706 5698 5699 5694 5689 5685 5689 5687 5684 5684 5678 5672 5673 5672 5670 5666 5664 5662 5659 5658 5659 5658 5656 5654 5652 5650 5649 5648 5648 5649 5648 5648 5649 5652 5654 5653 5654 5656 5658
5657 5667 5652 5652 5670 5691 5704 5713 5711 5708 5705 5699 5692 5687 5676 5677 5676 5677 5675 5673 5667 5666 5666 5665 5663 5660 5657 5656 5653 5652 5652 5651 5649 5647 5643 5641 5641 5641 5640 5639 5640 5641 5643 5645 5645 5645 5646 5649 5651
5655 5650 5649 5657 5675 5688 5703 5714 5700 5704 5700 5693 5698 5685 5666 5668 5668 5668 5666 5664 5658 5657 5658 5657 5656 5653 5650 5649 5646 5644 5644 5642 5640 5637 5634 5632 5631 5631 5630 5632 5632 5633 5629 5634 5634 5635 5638 5643 5643
5657 5644 5647 5664 5670 5676 5694 5698 5698 5692 5689 5698 5697 5679 5665 5667 5662 5658 5654 5649 5647 5646 5648 5649 5648 5644 5641 5639 5638 5634 5634 5630 5628 5624 5624 5625 5624 5623 5622 5621 5621 5624 5626 5622 5624 5629 5632 5636 5636
5657 5633 5642 5666 5661 5673 5691 5684 5688 5683 5676 5679 5679 5671 5666 5663 5655 5648 5643 5636 5635 5636 5638 5640 5640 5636 5632 5629 5626 5622 5620 5616 5617 5616 5616 5616 5615 5614 5614 5616 5617 5617 5620 5622 5623 5623 5625 5627 5630
5637 5630 5648 5669 5670 5670 5678 5676 5681 5672 5668 5668 5664 5654 5649 5648 5645 5640 5635 5629 5628 5627 5628 5630 5630 5628 5625 5619 5614 5610 5609 5608 5606 5607 5608 5608 5607 5607 5607 5608 5607 5609 5613 5615 5617 5619 5619 5621 5624
5641 5635 5655 5660 5669 5668 5666 5663 5669 5667 5659 5669 5657 5644 5643 5640 5639 5634 5628 5622 5622 5621 5620 5621 5621 5618 5616 5611 5606 5603 5601 5600 5600 5600 5599 5598 5599 5600 5601 5602 5604 5606 5606 5608 5608 5608 5611 5616 5620
5631 5646 5649 5651 5655 5652 5653 5658 5655 5656 5665 5672 5666 5648 5645 5637 5635 5634 5628 5622 5617 5612 5611 5611 5610 5609 5604 5602 5598 5594 5592 5591 5591 5591 5592 5592 5593 5595 5595 5595 5597 5599 5599 5600 5601 5602 5605 5608 5609
5631 5643 5645 5649 5648 5648 5647 5643 5645 5646 5665 5666 5661 5647 5640 5633 5629 5628 5626 5619 5612 5608 5603 5601 5600 5598 5595 5593 5590 5587 5584 5582 5582 5582 5584 5584 5584 5584 5585 5586 5587 5589 5590 5592 5593 5594 5595 5595 5595
5642 5638 5641 5641 5641 5639 5634 5637 5634 5651 5654 5652 5653 5643 5637 5632 5628 5621 5620 5616 5606 5600 5597 5595 5592 5590 5587 5585 5581 5579 5578 5574 5572 5571 5573 5575 5575 5574 5575 5575 5575 5576 5578 5580 5582 5584 5585 5586 5586
5626 5617 5622 5628 5630 5623 5629 5618 5631 5645 5643 5644 5645 5638 5635 5629 5624 5621 5616 5613 5605 5595 5589 5586 5584 5582 5579 5576 5573 5570 5568 5565 5563 5562 5562 5563 5564 5564 5564 5564 5564 5565 5567 5569 5571 5573 5575 5577 5578
5600 5601 5589 5623 5627 5628 5612 5608 5630 5635 5636 5633 5635 5630 5628 5623 5621 5615 5610 5603 5600 5590 5582 5577 5575 5571 5568 5566 5563 5560 5557 5555 5553 5552 5552 5552 5553 5553 5553 5553 5553 5554 5556 5558 5560 5561 5563 5565 5566
5582 5583 5593 5600 5616 5606 5606 5603 5621 5624 5624 5622 5621 5618 5615 5612 5609 5607 5601 5594 5589 5584 5576 5569 5565 5561 5557 5553 5551 5548 5546 5544 5542 5541 5540 5540 5541 5541 5541 5540 5541 5543 5545 5546 5548 5549 5550 5551 5553
5573 5578 5587 5589 5598 5598 5589 5591 5604 5609 5611 5608 5609 5611 5607 5601 5598 5594 5588 5582 5575 5569 5563 5557 5551 5546 5545 5541 5537 5534 5534 5532 5531 5529 5527 5527 5528 5528 5528 5528 5530 5532 5533 5534 5534 5536 5537 5537 5539
5577 5579 5579 5587 5592 5583 5578 5584 5593 5599 5600 5599 5597 5582 5578 5586 5589 5579 5572 5565 5558 5553 5547 5542 5536 5531 5528 5524 5522 5519 5518 5517 5517 5516 5515 5514 5515 5515 5515 5516 5516 5517 5517 5518 5520 5522 5523 5524 5525
5564 5565 5573 5574 5580 5575 5576 5578 5586 5592 5586 5568 5563 5551 5550 5557 5566 5563 5553 5549 5543 5539 5534 5528 5522 5518 5514 5510 5509 5508 5506 5505 5505 5503 5502 5501 5502 5504 5503 5503 5504 5505 5505 5505 5506 5507 5507 5508 5511
5551 5547 5553 5553 5554 5566 5557 5557 5574 5566 5557 5552 5540 5534 5533 5533 5540 5547 5540 5531 5527 5523 5519 5516 5510 5505 5499 5497 5496 5496 5494 5492 5488 5485 5485 5486 5487 5488 5489 5489 5490 5492 5492 5492 5493 5494 5494 5494 5495
5536 5535 5540 5540 5534 5531 5553 5517 5561 5550 5530 5518 5508 5504 5506 5511 5521 5524 5520 5516 5512 5508 5506 5502 5498 5492 5488 5486 5484 5483 5479 5475 5472 5471 5470 5471 5471 5471 5472 5473 5474 5476 5476 5476 5478 5479 5479 5481 5480
5524 5518 5520 5521 5517 5513 5527 5503 5543 5543 5511 5483 5478 5483 5484 5489 5494 5497 5498 5497 5495 5494 5490 5486 5482 5477 5474 5473 5470 5466 5463 5462 5460 5457 5454 5453 5453 5454 5455 5455 5456 5458 5459 5459 5460 5460 5461 5463 5462
5500 5504 5504 5501 5490 5464 5516 5519 5508 5487 5485 5467 5469 5464 5461 5465 5469 5473 5475 5476 5473 5472 5471 5469 5465 5459 5457 5455 5452 5449 5448 5447 5442 5439 5436 5435 5435 5435 5437 5438 5438 5440 5440 5440 5441 5442 5442 5443 5445
5483 5490 5482 5474 5457 5492 5513 5497 5477 5463 5457 5456 5445 5442 5440 5442 5447 5448 5449 5449 5448 5448 5448 5448 5444 5440 5439 5436 5434 5434 5434 5429 5425 5422 5419 5417 5416 5416 5418 5419 5420 5420 5420 5420 5420 5421 5422 5423 5424
5472 5483 5476 5473 5471 5477 5475 5457 5468 5432 5429 5432 5430 5429 5432 5426 5429 5429 5428 5426 5425 5425 5424 5425 5422 5420 5418 5417 5414 5417 5416 5411 5407 5403 5401 5400 5399 5399 5398 5399 5399 5400 5399 5399 5399 5401 5403 5404 5406
5469 5458 5463 5448 5467 5446 5477 5439 5424 5422 5420 5416 5419 5424 5418 5415 5413 5411 5412 5409 5407 5407 5403 5404 5403 5401 5400 5399 5398 5397 5394 5392 5389 5387 5385 5383 5381 5380 5378 5378 5380 5381 5381 5381 5381 5381 5382 5384 5386
5437 5442 5430 5427 5405 5423 5440 5452 5410 5398 5398 5397 5394 5396 5397 5402 5400 5398 5398 5397 5394 5390 5388 5388 5387 5385 5383 5383 5382 5379 5377 5374 5372 5370 5368 5364 5364 5364 5362 5361 5362 5363 5363 5363 5363 5363 5364 5365 5366
5417 5419 5421 5403 5391 5365 5380 5385 5406 5387 5387 5386 5387 5392 5392 5388 5388 5384 5382 5381 5379 5378 5374 5371 5370 5370 5369 5368 5365 5362 5361 5358 5357 5354 5351 5349 5347 5346 5344 5343 5345 5345 5346 5349 5348 5345 5346 5346 5348
5411 5401 5401 5375 5375 5392 5379 5367 5391 5389 5380 5374 5374 5384 5385 5384 5378 5376 5372 5368 5364 5362 5361 5357 5353 5354 5354 5352 5349 5346 5344 5341 5341 5338 5334 5333 5332 5331 5328 5327 5328 5329 5330 5333 5335 5332 5331 5330 5331